sat.trackr.live / text

‹ back to catalog

STARLINK-2388

NORAD 47807 · 2021-018W

PAYLOAD ACTIVE UNKNOWN

§ Identity

Operator
Country
US
Launch date
2021-03-11
Launch site
AFETR
Launch vehicle
Mass (kg)
RCS (m²)

Purposes: comms

External: N2YO · Heavens-Above · Gunter

§ Orbital elements

Epoch: 2026-09-19T22:08:18.991392Z

Period
94.01 min
Inclination
53.1586°
Eccentricity
0.0001347
Mean motion
15.31713631 rev/d
Perigee alt
469.8 km
Apogee alt
471.6 km
Semi-major
6,848.8 km
B*
3.1949e-5
RAAN
32.7734°
Arg perigee
73.7131°
Mean anomaly
286.4019°
Rev number
30,684

§ Raw data

STARLINK-23881 47807U 21018W   26262.92244203  .00000627  00000+0  31949-4 0  99962 47807  53.1586  32.7734 0001347  73.7131 286.4019 15.31713631306841

JSON: /api/v1/satellites/47807 · /tle

For live sub-satellite position, see the globe view (requires WebGL).

§ Visibility from observer

Set your observer location to see the next 7 days of passes ≥ 10°. The values pass through the URL so the page stays shareable.

No JS? Fill the form by hand. The geolocation button needs JavaScript.